Location: Hains Lake
(37.8540°N, 99.8578°W)
Time: 13:27:35
(UTC+00:00)

Altair - All Passes

Search period start: 23 April 2021 00:00
Search period end: 03 May 2021 00:00
Orbit: 1501 x 1683 km, 47.2° (Epoch: 22 April)

Date Brightness Start Highest point End Pass type
(mag) Time Alt. Az. Time Alt. Az. Time Alt. Az.
23 Apr - 09:33:59 10° SSW 09:42:54 37° SE 09:51:36 10° ENE visible
23 Apr - 11:37:06 10° WSW 11:47:10 82° NNW 11:56:53 10° ENE daylight
23 Apr - 13:43:29 10° W 13:52:58 50° N 14:02:06 10° ENE daylight
23 Apr - 15:49:43 10° WNW 15:59:12 58° NNE 16:08:19 10° E daylight
23 Apr - 17:54:51 10° WNW 18:04:10 67° SW 18:13:13 10° SE daylight
23 Apr - 20:02:00 10° W 20:07:28 17° SW 20:12:54 10° SSW daylight
24 Apr - 09:09:06 10° S 09:17:47 34° SE 09:26:16 10° ENE visible
24 Apr - 11:11:51 10° WSW 11:21:57 87° NNW 11:31:42 10° ENE visible
24 Apr - 13:18:06 10° W 13:27:39 51° N 13:36:51 10° ENE daylight
24 Apr - 15:24:27 10° WNW 15:33:56 56° NNE 15:43:03 10° E daylight
24 Apr - 17:29:37 10° WNW 17:39:02 72° SW 17:48:09 10° SE daylight
24 Apr - 19:36:21 10° W 19:42:26 20° SW 19:48:29 10° SSW daylight
25 Apr - 08:44:16 10° S 08:52:41 31° SE 09:00:54 10° ENE visible
25 Apr - 10:46:37 10° SW 10:56:44 89° SSE 11:06:31 10° ENE visible
25 Apr - 12:52:44 10° W 13:02:21 52° N 13:11:36 10° ENE daylight
25 Apr - 14:59:10 10° WNW 15:08:39 54° NNE 15:17:46 10° E daylight
25 Apr - 17:04:23 10° WNW 17:13:54 77° SW 17:23:04 10° SE daylight
25 Apr - 19:10:47 10° W 19:17:25 22° SW 19:23:57 10° S daylight
26 Apr - 08:19:29 10° S 08:27:35 28° SE 08:35:30 10° ENE visible
26 Apr - 10:21:25 10° SW 10:31:31 84° SE 10:41:19 10° ENE visible
26 Apr - 12:27:21 10° W 12:37:03 53° NNW 12:46:22 10° ENE daylight
26 Apr - 14:33:52 10° WNW 14:43:22 53° NNE 14:52:29 10° E daylight
26 Apr - 16:39:10 10° WNW 16:48:44 82° SW 16:57:58 10° SE daylight
26 Apr - 18:45:17 10° WNW 18:52:22 25° SW 18:59:21 10° S daylight
27 Apr - 07:54:46 10° S 08:02:28 25° SE 08:10:05 10° ENE visible
27 Apr - 09:56:13 10° SW 10:06:19 79° SE 10:16:09 10° ENE visible
27 Apr - 12:01:59 10° W 12:11:45 55° NNW 12:21:09 10° ENE daylight
27 Apr - 14:08:35 10° WNW 14:18:05 52° N 14:27:12 10° E daylight
27 Apr - 16:13:56 10° WNW 16:23:35 87° SSW 16:32:50 10° SE daylight
27 Apr - 18:19:50 10° WNW 18:27:19 28° SW 18:34:40 10° S daylight
28 Apr - 07:30:06 10° S 07:37:23 23° SE 07:44:35 10° E visible
28 Apr - 09:31:03 10° SW 09:41:07 75° SE 09:50:56 10° ENE visible
28 Apr - 11:36:38 10° W 11:46:27 56° NNW 11:55:56 10° ENE daylight
28 Apr - 13:43:15 10° WNW 13:52:47 51° N 14:01:55 10° E daylight
28 Apr - 15:48:42 10° WNW 15:58:24 89° NE 16:07:42 10° ESE daylight
28 Apr - 17:54:25 10° WNW 18:02:16 31° SW 18:09:56 10° S daylight
29 Apr - 07:05:31 10° SSE 07:12:18 21° SE 07:19:01 10° E visible
29 Apr - 09:05:54 10° SW 09:15:56 70° SE 09:25:44 10° ENE visible
29 Apr - 11:11:16 10° W 11:21:09 58° NNW 11:30:43 10° ENE visible
29 Apr - 13:17:56 10° WNW 13:27:28 50° N 13:36:38 10° E daylight
29 Apr - 15:23:28 10° WNW 15:33:12 84° NNE 15:42:32 10° ESE daylight
29 Apr - 17:29:03 10° WNW 17:37:12 34° SW 17:45:09 10° S daylight
30 Apr - 06:41:02 10° SSE 06:47:14 18° SE 06:53:22 10° E visible
30 Apr - 08:40:46 10° SW 08:50:45 65° SE 09:00:31 10° ENE visible
30 Apr - 10:45:55 10° W 10:55:52 61° NNW 11:05:30 10° ENE visible
30 Apr - 12:52:36 10° WNW 13:02:10 50° N 13:11:21 10° E daylight
30 Apr - 14:58:14 10° WNW 15:08:00 80° NNE 15:17:21 10° ESE daylight
30 Apr - 17:03:41 10° WNW 17:12:08 37° SW 17:20:20 10° SSE daylight
01 May - 06:16:41 10° SSE 06:22:10 16° ESE 06:27:35 10° E visible
01 May - 08:15:40 10° SW 08:25:35 61° SE 08:35:17 10° ENE visible
01 May - 10:20:34 10° WSW 10:30:34 63° NNW 10:40:17 10° ENE visible
01 May - 12:27:16 10° WNW 12:36:51 49° N 12:46:04 10° ENE daylight
01 May - 14:32:59 10° WNW 14:42:47 76° NNE 14:52:09 10° ESE daylight
01 May - 16:38:22 10° WNW 16:47:03 41° SW 16:55:28 10° SSE daylight
02 May - 05:52:33 10° SSE 05:57:06 14° ESE 06:01:37 10° E visible
02 May - 07:50:36 10° SSW 08:00:25 56° SE 08:10:03 10° ENE visible
02 May - 09:55:14 10° WSW 10:05:18 66° NNW 10:15:04 10° ENE visible
02 May - 12:01:56 10° WNW 12:11:31 49° N 12:20:46 10° ENE daylight
02 May - 14:07:44 10° WNW 14:17:34 72° NNE 14:26:56 10° ESE daylight
02 May - 16:13:03 10° WNW 16:21:58 45° SW 16:30:35 10° SSE daylight
